Location: Newark
(55.2831°N, 38.7366°E)
Time: 08:36:30
(UTC+00:00)

TIGRISAT - Visible Passes

Search period start: 24 September 2019 00:00
Search period end: 04 October 2019 00:00
Orbit: 604 x 690 km, 97.7° (Epoch: 24 September)

Date Brightness Start Highest point End Pass type
(mag) Time Alt. Az. Time Alt. Az. Time Alt. Az.
24 Sep ? 17:16:33 10° NE 17:17:39 14° ENE 17:17:39 14° ENE visible
24 Sep ? 18:52:27 10° N 18:55:23 41° N 18:55:23 41° N visible
24 Sep ? 20:30:36 10° NNW 20:32:40 13° NW 20:33:06 13° WNW visible
25 Sep ? 17:41:45 10° NNE 17:43:27 20° NE 17:43:27 20° NE visible
25 Sep ? 19:18:19 10° N 19:21:10 33° NNW 19:21:10 33° NNW visible
26 Sep ? 18:07:13 10° NNE 18:09:15 26° NE 18:09:15 26° NE visible
26 Sep ? 19:44:18 10° N 19:46:58 24° NW 19:46:58 24° NW visible
27 Sep ? 18:32:53 10° NNE 18:35:03 29° NNE 18:35:03 29° NNE visible
27 Sep ? 20:10:29 10° NNW 20:12:46 17° NW 20:12:46 17° NW visible
28 Sep ? 17:22:33 10° NE 17:23:08 13° NE 17:23:08 13° NE visible
28 Sep ? 18:58:39 10° N 19:00:51 29° N 19:00:51 29° N visible
28 Sep ? 20:37:07 10° NNW 20:38:34 12° NW 20:38:34 12° NW visible
29 Sep ? 17:47:50 10° NNE 17:48:56 16° NE 17:48:56 16° NE visible
29 Sep ? 19:24:33 10° N 19:26:39 25° NNW 19:26:39 25° NNW visible
30 Sep ? 18:13:22 10° NNE 18:14:44 20° NNE 18:14:44 20° NNE visible
30 Sep ? 19:50:35 10° N 19:52:27 19° NNW 19:52:27 19° NNW visible
01 Oct ? 18:39:03 10° NNE 18:40:33 21° NNE 18:40:33 21° NNE visible
01 Oct ? 20:16:49 10° NNW 20:18:16 15° NW 20:18:16 15° NW visible
02 Oct ? 17:28:34 10° NE 17:28:37 10° NE 17:28:37 10° NE visible
02 Oct ? 19:04:51 10° N 19:06:21 21° N 19:06:21 21° N visible
02 Oct ? 20:43:46 10° NNW 20:44:04 10° NW 20:44:04 10° NW visible
03 Oct ? 17:53:56 10° NNE 17:54:26 13° NNE 17:54:26 13° NNE visible
03 Oct ? 19:30:47 10° N 19:32:09 18° NNW 19:32:09 18° NNW visible
